Weather in Khalmer-Yu

Russia / Komi Republic     67°56′39″N   64°44′11″E
temp.,
°C
wind,
m/s
gust,
m/s
humid.,
%
clouds,
%
prec.,
mm/h
press.,
hPa
HPBL,
m
23 october, sat
sat2300:00−8ese249397 0.0 98555
03:00−7se2391100 0.0 98461
06:00−5ese2389100 0.0 981109
09:00−5ese2496100 1.4 981179
12:00−4ese2397100 1.8 980169
15:00−3e0198100 3.4 98185
18:00−3nw2498100 1.2 982161
21:00−4wnw3697100 2.0 984296
24 october, sun
sun2400:00−4wsw61196100 0.5 986412
03:00−4w7129585 0.7 987367
06:00−4wnw7139597 0.3 989474
09:00−5wnw8139586 0.4 992520
12:00−6wnw7129489 0.0 996365
15:00−7wnw6129555 0.0 999239
18:00−8w5119522 0.0 1000167
21:00−10wsw4109410 0.0 1001119
25 october, mon
mon2500:00−8wsw499541 0.0 1002122
03:00−8wsw499597 0.1 1002162
06:00−12sw369520 0.0 100377
09:00−11sw369580 0.0 1003105
12:00−9sw379568 0.1 1004143
15:00−9sw499658 0.1 1004142
18:00−8sw5109592 0.1 1004202
21:00−9sw599451 0.3 1003195
26 october, tue
tue2600:00−10sw499661 0.1 1003151
03:00−11sw499894 0.1 1003138
06:00−9sw51195100 0.4 1001330
09:00−6sw4895100 0.9 1001357
12:00−5nw699599 0.7 1001579
15:00−7nnw6119192 1.2 1003554
18:00−8nnw6129385 0.1 1005438
21:00−9wnw489794 0.2 1006140
27 october, wed
wed2700:00−9nw5119693 0.1 1007229
03:00−12wnw499575 0.1 1009113
06:00−13w389587 0.0 101091
09:00−13ssw229891 0.0 101126
12:00−11ssw479697 0.1 1012145
15:00−11s3696100 0.1 1011109
18:00−14s329756 0.0 101027
21:00−16sse119815 0.0 10099